Weather History for Truth Or Consequences, NM

Change the Weather History Date:

Friday, February 22, 2013

  Actual Average Record
Temperature  
Mean Temperature 43 °F -  
Max Temperature 55 °F - 74 °F (2014)
Min Temperature 30 °F - 26 °F (2002)
Degree Days  
Heating Degree Days 22    
Month to date heating degree days 458  
Since 1 July heating degree days 2401  
Cooling Degree Days 0    
Month to date cooling degree days 0  
Year to date cooling degree days 0  
Moisture  
Dew Point 15 °F    
Average Humidity 38    
Maximum Humidity 58    
Minimum Humidity 18    
Precipitation  
Precipitation 0.00 in - 0.03 in (2005)
Month to date precipitation 0.01  
Year to date precipitation 0.08  
Sea Level Pressure  
Sea Level Pressure 29.89 in    
Wind  
Wind Speed 10 mph (WNW)    
Max Wind Speed 18 mph    
Max Gust Speed 26 mph    
Visibility 10 miles    
Events      
T = Trace of Precipitation, MM = Missing Value Source: NWS Daily Summary

Daily Weather History Graph

Daily Weather History Graph

Search for Another Location

Airport:

Trip Planner

Search our weather history database for the weather conditions in past years. The results will help you decide how hot, cold, wet, or windy it might be!

Date:

Astronomy

Feb. 22, 2013 Rise Set
Actual Time 6:45 AM MST 6:00 PM MST
Civil Twilight 6:19 AM MST 6:25 PM MST
Nautical Twilight 5:51 AM MST 6:54 PM MST
Astronomical Twilight 5:22 AM MST 7:23 PM MST
Moon 3:20 PM MST (2/22) 4:25 AM MST (2/22)
Length of Visible Light 12h 05m
Length of Day
11h 15m
Waxing Gibbous, 90% of the Moon is Illuminated
Feb 22
Waxing Gibbous
Feb 25
Full
Mar 4
Last Quarter
Mar 11
New
Mar 19
First Quarter

Hourly Weather History & Observations

Time (MST) Temp. Windchill Dew Point Humidity Pressure Visibility Wind Dir Wind Speed Gust Speed Precip Events Conditions
12:53 AM 35.1 °F 30.1 °F 19.0 °F 52% 29.85 in 10.0 mi NW 5.8 mph - N/A   Partly Cloudy
1:53 AM 36.0 °F 29.0 °F 18.0 °F 48% 29.84 in 10.0 mi WNW 9.2 mph - N/A   Clear
2:53 AM 36.0 °F 28.0 °F 19.0 °F 50% 29.81 in 10.0 mi WNW 11.5 mph - N/A   Scattered Clouds
3:53 AM 35.1 °F 26.4 °F 19.9 °F 54% 29.83 in 10.0 mi WNW 12.7 mph - N/A   Clear
4:53 AM 33.1 °F 26.1 °F 19.0 °F 56% 29.84 in 10.0 mi NW 8.1 mph - N/A   Clear
5:53 AM 30.9 °F 22.2 °F 17.1 °F 57% 29.88 in 10.0 mi NW 10.4 mph - N/A   Clear
6:53 AM 30.9 °F 22.2 °F 16.0 °F 54% 29.92 in 10.0 mi NNW 10.4 mph - N/A   Clear
7:53 AM 35.1 °F 25.2 °F 17.1 °F 48% 29.94 in 10.0 mi NW 16.1 mph - N/A   Clear
8:53 AM 37.9 °F 30.0 °F 17.1 °F 43% 29.95 in 10.0 mi NW 12.7 mph 20.7 mph N/A   Clear
9:53 AM 42.1 °F 35.2 °F 16.0 °F 35% 29.94 in 10.0 mi WNW 12.7 mph - N/A   Clear
10:53 AM 44.1 °F 38.6 °F 12.9 °F 28% 29.95 in 10.0 mi SW 10.4 mph 16.1 mph N/A   Clear
11:53 AM 46.9 °F - 12.9 °F 25% 29.90 in 10.0 mi SSE 12.7 mph 17.3 mph N/A   Clear
12:53 PM 48.0 °F - 12.0 °F 24% 29.86 in 10.0 mi Variable 5.8 mph 17.3 mph N/A   Clear
1:53 PM 50.0 °F - 12.9 °F 23% 29.82 in 10.0 mi SSW 8.1 mph - N/A   Clear
2:53 PM 52.0 °F - 12.0 °F 20% 29.80 in 10.0 mi SSE 6.9 mph - N/A   Clear
3:53 PM 53.1 °F - 10.0 °F 18% 29.79 in 10.0 mi Variable 6.9 mph - N/A   Clear
4:53 PM 53.1 °F - 12.0 °F 20% 29.79 in 10.0 mi West 11.5 mph - N/A   Clear
5:53 PM 50.0 °F - 14.0 °F 24% 29.82 in 10.0 mi West 12.7 mph 20.7 mph N/A   Clear
6:53 PM 46.0 °F 41.9 °F 14.0 °F 28% 29.87 in 10.0 mi WNW 8.1 mph - N/A   Clear
7:53 PM 42.1 °F 37.7 °F 14.0 °F 32% 29.90 in 10.0 mi West 6.9 mph - N/A   Clear
8:53 PM 43.0 °F 36.8 °F 16.0 °F 34% 29.94 in 10.0 mi WNW 11.5 mph - N/A   Clear
9:53 PM 39.9 °F 31.8 °F 10.9 °F 31% 29.99 in 10.0 mi NNW 15.0 mph 24.2 mph N/A   Clear
10:53 PM 37.9 °F 31.5 °F 10.9 °F 33% 30.00 in 10.0 mi NNW 9.2 mph - N/A   Partly Cloudy
11:53 PM 36.0 °F 30.3 °F 9.0 °F 33% 30.01 in 10.0 mi NNW 6.9 mph - N/A   Clear